Abingdon, VA

6:13 PM EDT on September 20, 2017 (GMT -0400)
Virginia Highlands

Weather History for KVJI - November, 2013

Change the Weather History Date:

Thursday, November 14, 2013

  Actual Average (KTRI) Record (KTRI)
Temperature  
Mean Temperature 37 °F -  
Max Temperature 53 °F 56 °F 81 °F (1993)
Min Temperature 21 °F 32 °F 16 °F (1986)
Degree Days  
Heating Degree Days 28    
Moisture  
Dew Point 22 °F    
Average Humidity 61    
Maximum Humidity 93    
Minimum Humidity 28    
Precipitation  
Precipitation 0.00 in - - ()
Sea Level Pressure  
Sea Level Pressure 30.36 in    
Wind  
Wind Speed 1 mph (WSW)    
Max Wind Speed 10 mph    
Max Gust Speed -    
Visibility 10 miles    
Events      
Averages and records for this station are not official NWS values.
T = Trace of Precipitation, MM = Missing Value Source: NWS Daily Summary

Daily Weather History Graph

Daily Weather History Graph

Search for Another Location

Airport or City:

Trip Planner

Search our weather history database for the weather conditions in past years. The results will help you decide how hot, cold, wet, or windy it might be!

Date:

Astronomy

Nov. 14, 2013 Rise Set
Actual Time 7:05 AM EST 5:19 PM EST
Civil Twilight 6:37 AM EST 5:47 PM EST
Nautical Twilight 6:06 AM EST 6:18 PM EST
Astronomical Twilight 5:35 AM EST 6:48 PM EST
Moon 3:36 PM EST (11/14) 4:03 AM EST (11/14)
Length of Visible Light 11h 09m
Length of Day
10h 14m
Waxing Gibbous, 91% of the Moon is Illuminated
Nov 14
Waxing Gibbous
Nov 17
Full
Nov 25
Last Quarter
Dec 2
New
Dec 9
First Quarter

Hourly Weather History & Observations

Time (EST) Temp. Windchill Dew Point Humidity Pressure Visibility Wind Dir Wind Speed Gust Speed Precip Events Conditions
12:15 AM 24.6 °F - 20.3 °F 84% 30.42 in 10.0 mi Calm Calm - N/A   Clear
12:35 AM 24.8 °F - 20.8 °F 85% 30.42 in 10.0 mi Calm Calm - N/A   Clear
12:55 AM 25.2 °F - 20.5 °F 82% 30.42 in 10.0 mi Calm Calm - N/A   Clear
1:15 AM 25.3 °F - 20.7 °F 82% 30.42 in 10.0 mi Calm Calm - N/A   Clear
1:35 AM 25.7 °F - 20.3 °F 80% 30.41 in 10.0 mi Calm Calm - N/A   Clear
1:55 AM 25.0 °F 20.7 °F 20.8 °F 84% 30.41 in 10.0 mi ESE 3.5 mph - N/A   Clear
2:15 AM 24.4 °F - 20.5 °F 85% 30.40 in 10.0 mi Calm Calm - N/A   Clear
2:35 AM 23.9 °F - 20.7 °F 87% 30.40 in 7.0 mi Calm Calm - N/A   Clear
2:55 AM 24.6 °F - 20.8 °F 86% 30.40 in 10.0 mi Calm Calm - N/A   Clear
3:15 AM 23.9 °F - 20.3 °F 86% 30.40 in 10.0 mi Calm Calm - N/A   Clear
3:35 AM 24.4 °F - 20.5 °F 85% 30.40 in 10.0 mi Calm Calm - N/A   Clear
3:55 AM 23.7 °F - 20.3 °F 87% 30.39 in 10.0 mi Calm Calm - N/A   Clear
4:15 AM 23.7 °F - 20.3 °F 87% 30.39 in 10.0 mi Calm Calm - N/A   Clear
4:35 AM 22.8 °F - 19.6 °F 87% 30.40 in 10.0 mi Calm Calm - N/A   Clear
4:55 AM 23.2 °F - 20.1 °F 88% 30.40 in 10.0 mi Calm Calm - N/A   Clear
5:15 AM 22.1 °F - 19.8 °F 91% 30.41 in 10.0 mi Calm Calm - N/A   Clear
5:35 AM 22.6 °F - 20.1 °F 90% 30.41 in 10.0 mi Calm Calm - N/A   Clear
5:55 AM 22.3 °F - 19.6 °F 89% 30.41 in 10.0 mi Calm Calm - N/A   Clear
6:15 AM 22.6 °F - 19.8 °F 89% 30.42 in 10.0 mi Calm Calm - N/A   Clear
6:35 AM 21.7 °F - 19.9 °F 93% 30.42 in 10.0 mi Calm Calm - N/A   Clear
6:55 AM 21.4 °F - 19.4 °F 92% 30.42 in 10.0 mi Calm Calm - N/A   Clear
7:15 AM 22.5 °F - 19.8 °F 89% 30.42 in 10.0 mi Calm Calm - N/A   Clear
7:35 AM 22.6 °F - 19.9 °F 89% 30.43 in 10.0 mi Calm Calm - N/A   Clear
7:55 AM 23.9 °F - 20.8 °F 88% 30.43 in 10.0 mi Calm Calm - N/A   Clear
8:15 AM 27.3 °F - 21.9 °F 80% 30.43 in 10.0 mi Calm Calm - N/A   Clear
8:35 AM 30.9 °F - 23.7 °F 75% 30.44 in 10.0 mi Calm Calm - N/A   Clear
8:55 AM 32.0 °F - 24.3 °F 73% 30.44 in 10.0 mi Calm Calm - N/A   Clear
9:15 AM 34.0 °F - 25.5 °F 71% 30.45 in 10.0 mi Calm Calm - N/A   Clear
9:35 AM 36.9 °F - 26.1 °F 65% 30.44 in 10.0 mi Calm Calm - N/A   Clear
9:55 AM 38.7 °F - 26.1 °F 61% 30.44 in 10.0 mi Calm Calm - N/A   Clear
10:15 AM 40.6 °F 37.5 °F 25.9 °F 56% 30.44 in 10.0 mi SSW 4.6 mph - N/A   Clear
10:35 AM 42.8 °F 40.1 °F 25.3 °F 50% 30.44 in 10.0 mi SW 4.6 mph - N/A   Clear
10:55 AM 44.2 °F 39.7 °F 23.5 °F 44% 30.43 in 10.0 mi WSW 8.1 mph - N/A   Clear
11:15 AM 45.3 °F 41.1 °F 22.8 °F 41% 30.42 in 10.0 mi WSW 8.1 mph - N/A   Clear
11:35 AM 46.4 °F 42.4 °F 22.1 °F 38% 30.41 in 10.0 mi WSW 8.1 mph - N/A   Clear
11:55 AM 47.8 °F - 21.9 °F 36% 30.41 in 10.0 mi West 9.2 mph - N/A   Clear
12:15 PM 48.6 °F - 21.9 °F 35% 30.40 in 10.0 mi West 9.2 mph - N/A   Clear
12:35 PM 49.1 °F - 21.2 °F 33% 30.39 in 10.0 mi West 8.1 mph - N/A   Clear
12:55 PM 50.2 °F - 21.9 °F 33% 30.37 in 10.0 mi West 10.4 mph - N/A   Clear
1:15 PM 50.7 °F - 21.9 °F 32% 30.37 in 10.0 mi West 5.8 mph - N/A   Clear
1:35 PM 51.6 °F - 22.3 °F 32% 30.36 in 10.0 mi West 8.1 mph - N/A   Clear
1:55 PM 51.8 °F - 21.7 °F 31% 30.35 in 10.0 mi WSW 8.1 mph - N/A   Clear
2:15 PM 52.3 °F - 21.9 °F 30% 30.34 in 10.0 mi SW 8.1 mph - N/A   Clear
2:35 PM 53.1 °F - 21.2 °F 29% 30.33 in 10.0 mi West 5.8 mph - N/A   Clear
2:55 PM 52.7 °F - 20.3 °F 28% 30.33 in 10.0 mi West 4.6 mph - N/A   Clear
3:15 PM 52.9 °F - 20.1 °F 28% 30.32 in 10.0 mi WSW 5.8 mph - N/A   Clear
3:35 PM 53.1 °F - 20.8 °F 28% 30.31 in 10.0 mi WSW 3.5 mph - N/A   Clear
3:55 PM 52.7 °F - 21.2 °F 29% 30.31 in 10.0 mi SW 4.6 mph - N/A   Clear
4:15 PM 52.3 °F - 20.7 °F 29% 30.31 in 10.0 mi Calm Calm - N/A   Clear
4:35 PM 52.0 °F - 20.3 °F 29% 30.30 in 10.0 mi West 3.5 mph - N/A   Clear
4:55 PM 51.6 °F - 20.1 °F 29% 30.29 in 10.0 mi Calm Calm - N/A   Clear
5:15 PM 50.5 °F - 19.4 °F 29% 30.28 in 10.0 mi Calm Calm - N/A   Clear
5:35 PM 45.0 °F - 23.0 °F 42% 30.28 in 10.0 mi Calm Calm - N/A   Clear
5:55 PM 43.3 °F - 20.3 °F 40% 30.28 in 10.0 mi Calm Calm - N/A   Clear
6:15 PM 40.5 °F - 24.4 °F 53% 30.29 in 10.0 mi Calm Calm - N/A   Clear
6:35 PM 39.0 °F - 23.5 °F 54% 30.29 in 10.0 mi Calm Calm - N/A   Clear
6:55 PM 38.7 °F - 23.2 °F 54% 30.28 in 10.0 mi Calm Calm - N/A   Clear
7:15 PM 38.7 °F - 22.8 °F 53% 30.28 in 10.0 mi Calm Calm - N/A   Clear
7:35 PM 36.5 °F - 23.4 °F 59% 30.28 in 10.0 mi Calm Calm - N/A   Clear
7:55 PM 35.6 °F - 23.0 °F 60% 30.28 in 10.0 mi Calm Calm - N/A   Clear
8:15 PM 34.7 °F - 22.8 °F 62% 30.28 in 10.0 mi Calm Calm - N/A   Clear
8:35 PM 34.9 °F - 23.2 °F 62% 30.28 in 10.0 mi Calm Calm - N/A   Clear
8:55 PM 36.5 °F - 21.4 °F 54% 30.28 in 10.0 mi Calm Calm - N/A   Clear
9:15 PM 33.8 °F - 22.8 °F 64% 30.28 in 10.0 mi Calm Calm - N/A   Clear
9:35 PM 33.8 °F - 21.9 °F 62% 30.28 in 10.0 mi Calm Calm - N/A   Clear
9:55 PM 34.3 °F - 22.3 °F 61% 30.28 in 10.0 mi Calm Calm - N/A   Clear
10:15 PM 32.0 °F 28.7 °F 22.5 °F 68% 30.28 in 10.0 mi ESE 3.5 mph - N/A   Clear
10:35 PM 32.5 °F - 21.9 °F 65% 30.27 in 10.0 mi Calm Calm - N/A   Clear
10:55 PM 32.9 °F 29.8 °F 21.2 °F 62% 30.28 in 10.0 mi East 3.5 mph - N/A   Clear
11:15 PM 34.9 °F 30.8 °F 20.5 °F 56% 30.28 in 10.0 mi East 4.6 mph - N/A   Clear
11:35 PM 33.1 °F - 21.2 °F 62% 30.28 in 10.0 mi Calm Calm - N/A   Clear
11:55 PM 32.0 °F - 21.2 °F 64% 30.28 in 10.0 mi Calm Calm - N/A   Clear